Overview Statistics Trail Chart Weather Telemetry Raw packets
 

This is the latest recevied weather packets stored in our database for station/object HB9FHL-13. If no packets are shown the sender has not sent any weather packets the latest 10 day(s).

<< 120 121 122 123 124 125 126 >>
Time Temp. Humidity Pressure Rain* Wind** Luminosity Snow
1787914166 20.56° C - 1014.8 hPa 0 mm - - -
1787914160 20.56° C - 1014.8 hPa 0 mm - - -
1787913859 20.56° C - 1017.7 hPa 0 mm - - -
1787913558 20.56° C - 1018.2 hPa 0 mm - - -
1787913258 20.56° C - 1017.9 hPa 0 mm - - -
1787912963 21.11° C - 1021 hPa 0 mm - - -
1787912958 21.11° C - 1021 hPa 0 mm - - -
1787912729 20.56° C - 1013.7 hPa 0 mm - - -
1787912726 20.56° C - 1013.7 hPa 0 mm - - -
1787912661 20.56° C - 1013.7 hPa 0 mm - - -
1787912657 20.56° C - 1013.7 hPa 0 mm - - -
1787912361 21.11° C - 1014.5 hPa 0 mm - - -
1787912357 21.11° C - 1014.5 hPa 0 mm - - -
1787912056 21.11° C - 1018.2 hPa 0 mm - - -
1787911799 19.44° C - 1016.7 hPa 0 mm - - -
1787911761 19.44° C - 1016.7 hPa 0 mm - - -
1787911756 19.44° C - 1016.7 hPa 0 mm - - -
1787911455 20.56° C - 1016.1 hPa 0 mm - - -
1787911160 20.56° C - 1013.6 hPa 0 mm - - -
1787911155 20.56° C - 1013.6 hPa 0 mm - - -
1787910859 20° C - 1020.4 hPa 0 mm - - -
1787910854 20° C - 1020.4 hPa 0 mm - - -
1787910559 20.56° C - 1015.5 hPa 0 mm - - -
1787910554 20.56° C - 1015.5 hPa 0 mm - - -
1787910257 20° C - 1015.2 hPa 0 mm - - -

* Rain since midnight (hover to see other rain measurements)
** Current wind speed in m/s (hover to see current wind gust speed)